• în Republica Moldova
  • Lista ţărilor
  • Pe 7 zile
  • Temperatura apei
  • Hartă satelitară
  • Meteo pe hartă
  • Widget-uri
  • user-avatar
    Intrare

    Meteo pe oră la Newcastle

    Astăzi, 22 Septembrie, Sâmbătă

    Timp Temperatura Precipitaţii Vânt Presiune Umiditate
    00:00 +10°C° 0 mm 2 m/s 770 mmHg 95%
    01:00 +10°C° 0 mm 2 m/s 770 mmHg 96%
    02:00 +9°C° 0 mm 2 m/s 770 mmHg 96%
    03:00 +9°C° 0 mm 2 m/s 770 mmHg 96%
    04:00 +10°C° 0 mm 1 m/s 769 mmHg 96%
    05:00 +11°C° 0 mm 1 m/s 769 mmHg 93%
    06:00 +10°C° 0 mm 2 m/s 770 mmHg 89%
    07:00 +12°C° 0 mm 2 m/s 770 mmHg 85%
    08:00 +16°C° 0 mm 2 m/s 770 mmHg 71%
    09:00 +19°C° 0 mm 2 m/s 769 mmHg 58%
    10:00 +24°C° 0 mm 1 m/s 769 mmHg 42%
    11:00 +25°C° 0 mm 2 m/s 769 mmHg 38%
    12:00 +26°C° 0 mm 2 m/s 768 mmHg 34%
    13:00 +27°C° 0 mm 3 m/s 767 mmHg 30%
    14:00 +26°C° 0 mm 3 m/s 767 mmHg 34%
    15:00 +26°C° 0 mm 4 m/s 767 mmHg 37%
    16:00 +23°C° 0 mm 4 m/s 766 mmHg 40%
    17:00 +21°C° 0 mm 4 m/s 766 mmHg 47%
    18:00 +20°C° 0 mm 4 m/s 767 mmHg 54%
    19:00 +18°C° 0 mm 4 m/s 767 mmHg 61%
    20:00 +17°C° 0 mm 4 m/s 767 mmHg 63%
    21:00 +15°C° 0 mm 4 m/s 767 mmHg 64%
    22:00 +16°C° 0 mm 3 m/s 767 mmHg 66%
    23:00 +14°C° 0 mm 3 m/s 767 mmHg 68%

    Mâine, 23 Septembrie, Duminică

    Timp Temperatura Precipitaţii Vânt Presiune Umiditate
    00:00 +13°C° 0 mm 3 m/s 767 mmHg 69%
    01:00 +14°C° 0 mm 2 m/s 767 mmHg 70%
    02:00 +12°C° 0 mm 3 m/s 767 mmHg 72%
    03:00 +12°C° 0 mm 3 m/s 767 mmHg 75%
    04:00 +11°C° 0 mm 4 m/s 767 mmHg 77%
    05:00 +12°C° 0 mm 4 m/s 767 mmHg 76%
    06:00 +13°C° 0 mm 4 m/s 767 mmHg 74%
    07:00 +13°C° 0 mm 4 m/s 767 mmHg 73%
    08:00 +15°C° 0 mm 4 m/s 767 mmHg 66%
    09:00 +19°C° 0 mm 5 m/s 767 mmHg 60%
    10:00 +21°C° 0 mm 5 m/s 767 mmHg 54%
    11:00 +22°C° 0 mm 5 m/s 767 mmHg 51%
    12:00 +23°C° 0 mm 6 m/s 766 mmHg 49%
    13:00 +23°C° 0 mm 6 m/s 766 mmHg 47%
    14:00 +22°C° 0 mm 6 m/s 766 mmHg 52%
    15:00 +21°C° 0 mm 6 m/s 766 mmHg 58%
    16:00 +20°C° 0 mm 6 m/s 766 mmHg 63%
    17:00 +17°C° 0 mm 6 m/s 767 mmHg 71%
    18:00 +16°C° 0 mm 5 m/s 767 mmHg 78%
    19:00 +14°C° 0 mm 5 m/s 768 mmHg 85%
    20:00 +14°C° 0.1 mm 5 m/s 768 mmHg 86%
    21:00 +14°C° 0.1 mm 5 m/s 769 mmHg 87%
    22:00 +14°C° 0.1 mm 6 m/s 770 mmHg 88%
    23:00 +13°C° 0.3 mm 6 m/s 770 mmHg 89%

    Poimâine, 24 Septembrie, Luni

    Timp Temperatura Precipitaţii Vânt Presiune Umiditate
    00:00 +13°C° 0.3 mm 6 m/s 770 mmHg 90%
    01:00 +11°C° 0.3 mm 6 m/s 770 mmHg 91%
    02:00 +11°C° 0.1 mm 6 m/s 769 mmHg 91%
    03:00 +11°C° 0.1 mm 6 m/s 769 mmHg 91%
    04:00 +10°C° 0.1 mm 6 m/s 769 mmHg 90%
    05:00 +12°C° 0 mm 5 m/s 770 mmHg 87%
    06:00 +12°C° 0 mm 5 m/s 770 mmHg 84%
    07:00 +12°C° 0 mm 5 m/s 770 mmHg 80%
    08:00 +13°C° 0.1 mm 5 m/s 771 mmHg 76%
    09:00 +14°C° 0.1 mm 5 m/s 771 mmHg 72%
    10:00 +15°C° 0.1 mm 4 m/s 771 mmHg 67%
    11:00 +15°C° 0.2 mm 5 m/s 771 mmHg 68%
    12:00 +15°C° 0.2 mm 5 m/s 771 mmHg 68%
    13:00 +15°C° 0.2 mm 5 m/s 770 mmHg 68%
    14:00 +15°C° 0.1 mm 5 m/s 770 mmHg 66%
    15:00 +15°C° 0.1 mm 5 m/s 770 mmHg 64%
    16:00 +15°C° 0.1 mm 5 m/s 770 mmHg 61%
    17:00 +14°C° 0.1 mm 4 m/s 770 mmHg 68%
    18:00 +12°C° 0.1 mm 4 m/s 770 mmHg 74%
    19:00 +11°C° 0.1 mm 4 m/s 771 mmHg 81%
    20:00 +10°C° 0.1 mm 4 m/s 771 mmHg 83%
    21:00 +10°C° 0.1 mm 4 m/s 771 mmHg 86%
    22:00 +10°C° 0.1 mm 3 m/s 771 mmHg 88%
    23:00 +10°C° 0.1 mm 3 m/s 771 mmHg 88%

    25 Septembrie, Marţi

    Timp Temperatura Precipitaţii Vânt Presiune Umiditate
    00:00 +10°C° 0.1 mm 3 m/s 771 mmHg 87%
    01:00 +10°C° 0.1 mm 3 m/s 771 mmHg 87%
    02:00 +9°C° 0 mm 3 m/s 770 mmHg 88%
    03:00 +9°C° 0 mm 2 m/s 770 mmHg 88%
    04:00 +9°C° 0 mm 2 m/s 770 mmHg 89%
    05:00 +9°C° 0.1 mm 2 m/s 770 mmHg 87%
    06:00 +10°C° 0.1 mm 3 m/s 771 mmHg 86%
    07:00 +10°C° 0.1 mm 3 m/s 771 mmHg 84%
    08:00 +12°C° 0.2 mm 3 m/s 771 mmHg 74%
    09:00 +14°C° 0.2 mm 3 m/s 771 mmHg 63%
    10:00 +17°C° 0.2 mm 3 m/s 771 mmHg 53%
    11:00 +18°C° 0.1 mm 3 m/s 770 mmHg 53%
    12:00 +18°C° 0.1 mm 3 m/s 769 mmHg 53%
    13:00 +18°C° 0.1 mm 3 m/s 769 mmHg 53%
    14:00 +18°C° 0 mm 3 m/s 768 mmHg 53%
    15:00 +18°C° 0 mm 3 m/s 768 mmHg 54%
    16:00 +17°C° 0 mm 3 m/s 767 mmHg 54%
    17:00 +14°C° 0 mm 3 m/s 768 mmHg 63%
    18:00 +13°C° 0 mm 2 m/s 768 mmHg 72%
    19:00 +10°C° 0 mm 2 m/s 769 mmHg 81%
    20:00 +10°C° 0 mm 2 m/s 769 mmHg 85%
    21:00 +10°C° 0 mm 1 m/s 769 mmHg 88%
    22:00 +10°C° 0 mm 1 m/s 769 mmHg 91%
    23:00 +10°C° 0 mm 1 m/s 769 mmHg 93%

    26 Septembrie, Miercuri

    Timp Temperatura Precipitaţii Vânt Presiune Umiditate
    00:00 +9°C° 0 mm 1 m/s 769 mmHg 94%
    01:00 +9°C° 0 mm 1 m/s 768 mmHg 96%
    02:00 +9°C° 0 mm 1 m/s 768 mmHg 96%
    03:00 +9°C° 0 mm 1 m/s 768 mmHg 96%
    04:00 +8°C° 0 mm 1 m/s 767 mmHg 96%
    05:00 +9°C° 0 mm 1 m/s 768 mmHg 92%
    06:00 +10°C° 0 mm 1 m/s 768 mmHg 88%
    07:00 +11°C° 0 mm 1 m/s 768 mmHg 84%
    08:00 +14°C° 0 mm 1 m/s 768 mmHg 69%
    09:00 +19°C° 0 mm 1 m/s 767 mmHg 55%
    10:00 +22°C° 0 mm 1 m/s 767 mmHg 40%
    11:00 +23°C° 0 mm 1 m/s 766 mmHg 37%
    12:00 +24°C° 0 mm 2 m/s 766 mmHg 34%
    13:00 +25°C° 0 mm 2 m/s 765 mmHg 32%
    14:00 +24°C° 0 mm 3 m/s 765 mmHg 35%
    15:00 +22°C° 0 mm 3 m/s 764 mmHg 39%
    16:00 +21°C° 0 mm 4 m/s 764 mmHg 43%
    17:00 +19°C° 0 mm 4 m/s 764 mmHg 53%
    18:00 +17°C° 0 mm 4 m/s 765 mmHg 63%
    19:00 +14°C° 0 mm 4 m/s 765 mmHg 72%
    20:00 +13°C° 0 mm 4 m/s 765 mmHg 75%
    21:00 +13°C° 0 mm 3 m/s 766 mmHg 78%
    22:00 +12°C° 0 mm 3 m/s 766 mmHg 80%
    23:00 +12°C° 0 mm 3 m/s 765 mmHg 83%

    27 Septembrie, Joi

    Timp Temperatura Precipitaţii Vânt Presiune Umiditate
    00:00 +11°C° 0 mm 3 m/s 765 mmHg 86%
    01:00 +10°C° 0 mm 3 m/s 764 mmHg 89%
    02:00 +10°C° 0 mm 3 m/s 764 mmHg 90%
    03:00 +9°C° 0 mm 3 m/s 764 mmHg 92%
    04:00 +9°C° 0 mm 3 m/s 763 mmHg 93%
    05:00 +10°C° 0 mm 3 m/s 763 mmHg 87%
    06:00 +11°C° 0 mm 3 m/s 763 mmHg 82%
    07:00 +12°C° 0 mm 3 m/s 764 mmHg 76%
    08:00 +16°C° 0 mm 2 m/s 763 mmHg 64%
    09:00 +20°C° 0 mm 2 m/s 763 mmHg 52%
    10:00 +24°C° 0 mm 2 m/s 762 mmHg 40%
    11:00 +26°C° 0 mm 3 m/s 761 mmHg 36%
    12:00 +28°C° 0 mm 3 m/s 761 mmHg 32%
    13:00 +29°C° 0 mm 3 m/s 760 mmHg 28%
    14:00 +27°C° 0 mm 3 m/s 760 mmHg 39%
    15:00 +24°C° 0 mm 3 m/s 760 mmHg 50%
    16:00 +21°C° 0 mm 4 m/s 759 mmHg 61%
    17:00 +20°C° 0 mm 4 m/s 759 mmHg 65%
    18:00 +19°C° 0 mm 4 m/s 760 mmHg 68%
    19:00 +17°C° 0 mm 4 m/s 760 mmHg 72%
    20:00 +17°C° 0 mm 4 m/s 760 mmHg 74%
    21:00 +16°C° 0 mm 3 m/s 759 mmHg 76%
    22:00 +14°C° 0 mm 3 m/s 759 mmHg 79%
    23:00 +14°C° 0 mm 3 m/s 759 mmHg 79%
    Arată mai mult